Flag for Spain Weather past 2 weeks in Mahón, Menorca, Spain

Now
67 °F

Mild.


Feels Like: 67 °F
Forecast: 69 / 77 °F
Wind: 7 mph from North

Location: Menorca / Mahon

Current Time: Oct 2, 2014 at 5:14:44 AM

Latest Report: Oct 2, 2014 at 4:00 AM


Visibility: N/A

Pressure: 30.22 "Hg

Humidity: 91%

Dew point: 65 °F

Location of MahónLocation

Historic Weather in Mahón — Graph

°F

Mahón temperature yesterday

Maximum temperature yesterday: 77 °F (at 2:00 PM)
Minimum temperature yesterday: 68 °F (at 7:00 AM)
Average temperature yesterday: 72 °F

Past Weeks' High & Low Weather Summary

 TemperatureHumidityPressure
High87 °F (Sep 17, 4:00 PM)98% (Sep 23, 1:00 AM)30.27 "Hg (Sep 23, 1:00 AM)
Low61 °F (Sep 27, 3:00 AM)48% (Sep 26, 1:00 PM)29.75 "Hg (Sep 17, 5:00 PM)
Average74 °F79%30.05 "Hg
* Reported Sep 17 4:00 AM — Oct 2 4:00 AM, Mahón, Weather by CustomWeather, © 2014

Note: Actual official high and low records may vary slightly from our data, if they occured in-between our weather recording intervals... More about our weather records

Advertising

Mahón weather history for previous 24 hours

 ConditionsComfort  
Time TempWeatherWind HumidityBarometerVisibility
4:00 AM
Oct 2
67 °FMild.7 mph91%30.22 "HgN/A
3:00 AM69 °FMild.3 mph89%30.22 "HgN/A
2:00 AM69 °FMild.6 mph87%30.23 "HgN/A
1:00 AM69 °FMild.5 mph88%30.24 "HgN/A
12:00 AM69 °FMild.5 mph89%30.24 "HgN/A
11:00 PM
Oct 1
69 °FOvercast.3 mph88%30.24 "Hg9 mi
10:00 PM70 °FMild.2 mph87%30.25 "HgN/A
9:00 PM70 °FMild.3 mph86%30.25 "HgN/A
8:00 PM70 °FOvercast.6 mph87%30.24 "Hg9 mi
7:00 PM72 °FMild.7 mph82%30.23 "HgN/A
6:00 PM73 °FMild.13 mph77%30.22 "HgN/A
5:00 PM74 °FOvercast.14 mph75%30.22 "Hg12 mi
4:00 PM75 °FMild.17 mph70%30.22 "HgN/A
3:00 PM77 °FPartly sunny.17 mph67%30.22 "Hg16 mi
2:00 PM77 °FOvercast.17 mph67%30.24 "Hg16 mi
1:00 PM75 °FMild.17 mph69%30.26 "HgN/A
12:00 PM74 °FMild.15 mph71%30.27 "HgN/A
11:00 AM74 °FOvercast.17 mph72%30.26 "Hg12 mi
10:00 AM73 °FMild.15 mph78%30.25 "HgN/A
9:00 AM71 °FPartly sunny.10 mph85%30.25 "Hg12 mi
8:00 AM68 °FScattered clouds.10 mph90%30.24 "Hg16 mi
7:00 AM68 °FMild.10 mph92%30.24 "HgN/A
6:00 AM69 °FMild.10 mph92%30.22 "HgN/A
5:00 AM70 °FPassing clouds.9 mph95%30.22 "Hg8 mi
Weather by CustomWeather, © 2014

See weather overviewHow to use our weather pages